Regional Weather Roundup
Issued by NWS Boston, MA

Home | Current Version | Previous Version | Text Only | Print | Product List | Glossary On
Versions: 1 2 3 4 5 6 7 8 9 10 11 12 13 14 15 16 17 18 19 20 21 22 23 24 25 26 27 28 29 30 31 32 33 34 35 36 37 38 39 40 41 42 43 44 45 46 47 48 49 50
541
ASUS41 KBOX 191310
RWRBOX

REGIONAL WEATHER ROUNDUP
NATIONAL WEATHER SERVICE TAUNTON MA
900 AM EDT TUE SEP 19 2017

NOTE:  "FAIR" INDICATES FEW OR NO CLOUDS BELOW 12,000 FEET WITH NO
SIGNIFICANT WEATHER AND/OR OBSTRUCTIONS TO VISIBILITY.

MAZALL-191400-
EASTERN MASSACHUSETTS

CITY           SKY/WX    TMP DP  RH WIND       PRES   REMARKS
BOSTON         FOG       63  63 100 NE12      30.13R VSB 1
BEVERLY        FOG       63  62  97 N7        30.12S VSB 1/2
LAWRENCE       CLOUDY    66  63  90 NE10      30.16R FOG
BEDFORD        CLOUDY    64  61  90 NE8       30.12S
BLUE HILL        N/A     62  60  93 NE14G24   30.11S
NORWOOD        CLOUDY    66  65  96 NE12G17   30.11R FOG
MARSHFIELD     FOG       64  64 100 VRB6G14   30.10S VSB 1/4
PLYMOUTH       LGT RAIN  65  63  93 NE15G22   30.09S VSB 1/2
TAUNTON        RAIN      65  63  93 NE8       30.09S FOG
NEW BEDFORD    LGT RAIN  65  64  97 N10G16    30.06S FOG
$$

MAZALL-191400-
CAPE COD AND THE ISLANDS

CITY           SKY/WX    TMP DP  RH WIND       PRES   REMARKS
FALMOUTH       DRZL/FOG  64  64 100 NE14      30.07S VSB 1/4
HYANNIS        LGT RAIN  68  67  96 NE9       30.05R FOG
CHATHAM        LGT RAIN  66  66 100 NE8G18    30.07S VSB 1/2
PROVINCETOWN   LGT RAIN  64  63  96 NE12      30.10R VSB 1
NANTUCKET      FOG       65  65 100 NE14      30.03S VSB 3/4
MARTHAS VNYRD  CLOUDY    68  66  93 NE16G22   30.04R FOG
$$

MAZALL-191400-
CENTRAL AND WESTERN MASSACHUSETTS

CITY           SKY/WX    TMP DP  RH WIND       PRES   REMARKS
WORCESTER      FOG       61  60  97 NE9       30.14R VSB 1/4
FITCHBURG      CLOUDY    66  63  90 NE9       30.15S
ORANGE         CLOUDY    65  62  90 NE7       30.13F
SPRINGFIELD    CLOUDY    67  61  80 NE7       30.10S
WESTFIELD      CLOUDY    67  63  87 N9        30.11S
NORTH ADAMS    CLOUDY    62  59  90 CALM      30.13S
PITTSFIELD     CLOUDY    63  59  87 NE7       30.13R
$$

RIZALL-191400-
RHODE ISLAND

CITY           SKY/WX    TMP DP  RH WIND       PRES   REMARKS
PROVIDENCE     LGT RAIN  66  66 100 NE16      30.08F
NEWPORT        LGT RAIN  66  66 100 NE15      30.06R
BLOCK ISLAND   CLOUDY    66  65  96 NE21G28   30.01F FOG
SMITHFIELD     RAIN      64  63  96 NE13      30.11R FOG
WESTERLY       LGT RAIN  67  65  93 NE10G22   30.05R
$$

CTZALL-191400-
CONNECTICUT

CITY           SKY/WX    TMP DP  RH WIND       PRES   REMARKS
BRADLEY INTL   CLOUDY    68  62  81 NE12      30.10S
HARTFORD       CLOUDY    68  63  84 N12       30.08S
BRIDGEPORT     MOSUNNY   70  64  81 NE18G25   30.03R
DANBURY        CLOUDY    69  64  84 NE10      30.08S
GROTON         CLOUDY    69  65  86 NE16      30.03R
NEW HAVEN      PTSUNNY   69  63  81 N16G24    30.03S
CHESTER        LGT RAIN  66  64  94 N10G18    30.06S
MERIDEN        CLOUDY    67  62  84 N9G18     30.07R
WILLIMANTIC    CLOUDY    67  64  90 NE13      30.09R
OXFORD         CLOUDY    65  63  93 NE16      30.08S
$$

MEZ002-015-021-024-NHZ003-005-008-011-012-014-VTZ005-008-191400-
NORTHERN NEW ENGLAND

CITY           SKY/WX    TMP DP  RH WIND       PRES   REMARKS
PORTLAND ME    CLOUDY    62  60  93 NE8       30.18R FOG
BANGOR ME      CLOUDY    65  62  90 E3        30.21S FOG
CONCORD NH     CLOUDY    66  62  87 NE5       30.16R
MANCHESTER NH  CLOUDY    65  63  93 N6        30.14R
NASHUA NH      CLOUDY    64  64 100 CALM      30.16R
PORTSMOUTH NH  CLOUDY    62  62  99 NE8       30.15R FOG
JAFFREY NH     CLOUDY    63  63 100 CALM      30.17S
KEENE NH       CLOUDY    67  62  84 NE6       30.15R
BURLINGTON VT  MOSUNNY   71  61  70 SE6       30.11F
MT. WASHINGTON PTSUNNY   55  41  58 S6          N/A
$$

NYZ052-076-191400-
EASTERN NEW YORK

CITY           SKY/WX    TMP DP  RH WIND       PRES   REMARKS
ALBANY         PTSUNNY   63  61  93 NW5       30.11F
NEW YORK CITY  PTSUNNY   72  66  81 NE16G24   30.00S
$$

ANZALL-191400-
MARINE OBSERVATIONS

STATION/POSITION TIME  TEMP    WIND        PRES    VSBY  WAVE
                       AIR SEA DIR/SP/G                  HT/PER
                 (UTC) (F)     (DEG/KT/KT) (MB)    (MI)  (FT/S)
BOSTON BUOY      1150   63 64   30/ 16/ 17 1019.5          3/13
BUZZARDS BAY     1300   66      20/ 22/ 24 1017.0F
NANTUCKET SOUND  1250   65 68   40/ 17/ 21 1016.9R         2/ 4
MASS BAY-STELLWA 1204   63 64   40/ 14/ 17 1019.2S         3/ 4
ISLE OF SHOALS   1300   60      30/ 15/ 16 1020.5R
S OF BLOCK IS    NOT AVBL
$$

......................KEY.........................
  SKY/WX - SKY CONDITION/PRESENT WEATHER
  TMP    - TEMPERATURE IN FAHRENHEIT
  DWPT   - DEWPOINT IN FAHRENHEIT
  RH     - RELATIVE HUMIDITY IN PERCENT
  WIND   - DIRECTION AND SPEED IN MPH
  PRES   - MEAN SEA LEVEL PRESSURE IN INCHES OF HG
  WCI    - WIND CHILL INDEX
  VSB    - VISIBILITY IN MILES
  HX     - HEAT INDEX
  TC     - TEMPERATURE IN CELSIUS
  VRB    - VARIABLE WIND DIRECTION
  N/A    - NOT AVAILABLE




USA.gov is the U.S. government's official web portal to all federal, state and local government web resources and services.